Boothville, LA

7:24 PM CDT on October 23, 2017 (GMT -0500)
Boothville

Weather History for KBVE - January, 2013

Change the Weather History Date:

Friday, January 4, 2013

  Actual Average (KAXO) Record (KAXO)
Temperature  
Mean Temperature 50 °F -  
Max Temperature 53 °F 56 °F 71 °F (1997)
Min Temperature 46 °F 53 °F 35 °F (2002)
Degree Days  
Heating Degree Days 16    
Moisture  
Dew Point 40 °F    
Average Humidity 68    
Maximum Humidity 86    
Minimum Humidity 57    
Precipitation  
Precipitation 0.00 in - - ()
Sea Level Pressure  
Sea Level Pressure 30.36 in    
Wind  
Wind Speed 10 mph (NNE)    
Max Wind Speed 14 mph    
Max Gust Speed 21 mph    
Visibility 10 miles    
Events      
Averages and records for this station are not official NWS values.
T = Trace of Precipitation, MM = Missing Value Source: NWS Daily Summary

Daily Weather History Graph

Daily Weather History Graph

Search for Another Location

Airport or City:

Trip Planner

Search our weather history database for the weather conditions in past years. The results will help you decide how hot, cold, wet, or windy it might be!

Date:

Astronomy

Jan. 04, 2013 Rise Set
Actual Time 6:52 AM CST 5:12 PM CST
Civil Twilight 6:26 AM CST 5:38 PM CST
Nautical Twilight 5:57 AM CST 6:08 PM CST
Astronomical Twilight 5:28 AM CST 6:37 PM CST
Moon No Moon Rise 11:10 AM CST (1/4)
Length of Visible Light 11h 12m
Length of Day
10h 20m
Waning Gibbous, 55% of the Moon is Illuminated
Jan 4
Waning Gibbous
Jan 4
Last Quarter
Jan 11
New
Jan 18
First Quarter
Jan 26
Full

Hourly Weather History & Observations

Time (CST) Temp. Dew Point Humidity Pressure Visibility Wind Dir Wind Speed Gust Speed Precip Events Conditions
12:51 AM 48.0 °F 34.0 °F 58% 30.34 in 10.0 mi NNE 11.5 mph 19.6 mph N/A   Clear
1:51 AM 48.0 °F 34.0 °F 58% 30.34 in 10.0 mi NNE 10.4 mph 18.4 mph N/A   Clear
2:51 AM 48.0 °F 35.1 °F 61% 30.35 in 10.0 mi NNE 9.2 mph 19.6 mph N/A   Clear
3:51 AM 46.9 °F 35.1 °F 63% 30.35 in 10.0 mi NE 11.5 mph 20.7 mph N/A   Clear
4:51 AM 46.9 °F 36.0 °F 66% 30.33 in 10.0 mi NE 12.7 mph 18.4 mph N/A   Clear
5:51 AM 48.0 °F 37.9 °F 68% 30.35 in 10.0 mi NE 10.4 mph - N/A   Clear
6:51 AM 48.0 °F 39.0 °F 71% 30.36 in 10.0 mi NE 10.4 mph 19.6 mph N/A   Clear
7:51 AM 48.9 °F 39.0 °F 69% 30.38 in 10.0 mi NNE 11.5 mph 18.4 mph N/A   Clear
8:51 AM 50.0 °F 41.0 °F 71% 30.41 in 10.0 mi NNE 9.2 mph 18.4 mph N/A   Clear
9:51 AM 52.0 °F 41.0 °F 66% 30.43 in 10.0 mi NE 13.8 mph 18.4 mph N/A   Clear
10:51 AM 51.1 °F 42.1 °F 71% 30.41 in 10.0 mi NNE 12.7 mph 18.4 mph N/A   Clear
11:51 AM 52.0 °F 42.1 °F 69% 30.39 in 10.0 mi NE 11.5 mph 17.3 mph N/A   Clear
12:51 PM 52.0 °F 42.1 °F 69% 30.36 in 10.0 mi NNE 9.2 mph - N/A   Clear
1:51 PM 53.1 °F 41.0 °F 64% 30.35 in 10.0 mi NNE 8.1 mph - N/A   Clear
2:51 PM 53.1 °F 37.9 °F 57% 30.35 in 10.0 mi North 8.1 mph - N/A   Clear
3:51 PM 51.1 °F 41.0 °F 68% 30.35 in 10.0 mi NNE 9.2 mph - N/A   Clear
4:51 PM 51.1 °F 39.9 °F 66% 30.35 in 10.0 mi NNE 8.1 mph - N/A   Clear
5:51 PM 51.1 °F 39.0 °F 63% 30.35 in 10.0 mi NE 6.9 mph - N/A   Clear
6:51 PM 51.1 °F 41.0 °F 68% 30.38 in 10.0 mi NNE 6.9 mph - N/A   Clear
7:51 PM 50.0 °F 43.0 °F 77% 30.38 in 10.0 mi NNE 4.6 mph - N/A   Clear
8:51 PM 50.0 °F 44.1 °F 80% 30.38 in 10.0 mi NNE 3.5 mph - N/A   Clear
9:51 PM 51.1 °F 42.1 °F 71% 30.36 in 10.0 mi North 6.9 mph - N/A   Clear
10:51 PM 50.0 °F 45.0 °F 83% 30.35 in 10.0 mi Variable 4.6 mph - N/A   Clear
11:51 PM 50.0 °F 46.0 °F 86% 30.33 in 10.0 mi NNE 4.6 mph - N/A   Clear